Weather observations for the past three days for
Lewiston, Lewiston-Nez Perce County Airport
Metric (Imperial)
Date Time (pdt) Wind (kph) Vis. (km) Weather Sky Cond. Temperature (ºC) Relative Humidity Wind Chill (°C) Heat Index (°C) Pressure Precipitation (cm)
Air Dwpt 6 hour altimeter (cm) sea level (mb) 1 hr 3 hr 6 hr
Max. Min.
02 15:56 N 6 16.09 Fair CLR 27.2 2.2 20% 26 75.95 1011.9
02 14:56 Calm 16.09 Fair CLR 26.1 7.2 30% 26 76.02 1012.8
02 13:56 W 7 16.09 Fair CLR 24.4 8.3 36% 25 76.07 1013.5
02 12:56 NE 9 16.09 Fair CLR 23.3 7.8 37% 76.12 1014.3
02 11:56 E 9 16.09 Fair CLR 21.1 5.6 37% 76.15 1014.9
02 10:56 Calm 16.09 Fair CLR 19.4 6.7 19.4 10.6 44% 76.2 1015.5
02 09:56 E 11 16.09 Fair CLR 18.3 6.7 47% 76.2 1015.7
02 08:56 E 11 16.09 Fair CLR 15.6 5.6 52% 76.25 1016.1
02 07:56 E 15 16.09 Fair CLR 13.9 4.4 53% 76.23 1015.7
02 06:56 SE 7 16.09 Fair CLR 11.1 5 66% 76.23 1015.6
02 05:56 SE 6 16.09 Fair CLR 11.1 4.4 64% 76.17 1015.2
02 04:56 E 7 16.09 Fair CLR 12.2 4.4 15.6 10.6 59% 76.17 1014.9
02 03:56 Calm 16.09 Fair CLR 12.2 4.4 59% 76.17 1015.1
02 02:56 SE 9 16.09 Fair CLR 11.7 5 64% 76.15 1014.8
02 01:56 Calm 16.09 Fair CLR 14.4 4.4 51% 76.15 1014.6
02 00:56 SE 7 16.09 Fair CLR 13.3 5.6 60% 76.15 1014.8
01 23:56 S 6 16.09 Fair CLR 14.4 5.6 56% 76.15 1014.6
01 22:56 S 9 16.09 Fair CLR 15 5.6 26.1 14.4 54% 76.12 1014.5
01 21:56 S 7 16.09 Fair CLR 16.1 5.6 50% 76.12 1014.5
01 20:56 Calm 16.09 Fair CLR 18.3 6.1 45% 76.1 1014.2
01 19:56 E 7 16.09 Fair CLR 21.7 2.8 29% 76.05 1013.4
01 18:56 E 11 16.09 Fair CLR 24.4 2.8 25% 25 76.05 1013.4
01 17:56 E 7 16.09 Fair CLR 25.6 2.2 22% 25 76.07 1013.7
01 16:56 N 6 16.09 Fair CLR 26.1 1.7 26.7 18.9 20% 26 76.1 1014.0
01 15:56 Calm 16.09 Fair CLR 25.6 1.1 20% 25 76.12 1014.7
01 14:56 Vrbl 7 16.09 Fair CLR 25.6 3.9 25% 25 76.2 1015.3
01 13:56 Vrbl 7 16.09 Fair CLR 25 5.6 29% 25 76.25 1015.9
01 12:56 Vrbl 9 16.09 Fair CLR 22.8 6.7 35% 76.28 1016.6
01 11:56 Vrbl 9 16.09 Fair CLR 21.1 5 35% 76.33 1017.4
01 10:56 Vrbl 7 16.09 Fair CLR 18.3 3.9 18.9 6.7 39% 76.38 1018.1
01 09:56 Vrbl 7 16.09 Fair CLR 16.1 5 48% 76.43 1018.7
01 08:56 N 7 16.09 Fair CLR 12.2 4.4 59% 76.48 1019.5
01 07:56 Vrbl 6 16.09 Fair CLR 11.1 3.9 61% 76.45 1019.2
01 06:56 E 11 16.09 Fair CLR 9.4 2.8 64% 8 76.43 1018.8
01 05:56 E 6 16.09 Fair CLR 7.2 2.2 71% 76.4 1018.4
01 04:56 E 6 16.09 Fair CLR 8.3 2.2 14.4 6.7 66% 76.4 1018.2
01 03:56 E 7 16.09 Fair CLR 8.9 2.2 63% 8 76.38 1018.2
01 02:56 Calm 16.09 Fair CLR 10.6 1.7 54% 76.38 1018.0
01 01:56 S 6 16.09 Fair CLR 10.6 2.2 56% 76.38 1018.0
01 00:56 SE 6 16.09 Fair CLR 11.1 2.2 55% 76.38 1018.0
30 23:56 S 9 16.09 Fair CLR 11.1 2.8 57% 76.35 1017.9
30 22:56 S 6 16.09 Fair CLR 13.9 2.8 23.9 12.2 47% 76.35 1017.7
30 21:56 SW 13 16.09 Fair CLR 14.4 2.8 46% 76.33 1017.6
30 20:56 S 7 16.09 Fair CLR 16.1 3.3 43% 76.3 1017.1
30 19:56 NW 6 16.09 Fair CLR 20 0.6 27% 76.28 1016.7
30 18:56 Calm 16.09 Fair CLR 22.2 -1.1 21% 76.28 1016.7
30 17:56 E 13 16.09 Fair CLR 23.3 -1.1 20% 76.28 1016.8
30 16:56 Calm 16.09 Fair CLR 23.3 -2.2 23.9 15.6 18% 76.3 1017.1
30 15:56 NE 13 16.09 Fair CLR 23.3 0 21% 76.35 1017.9
30 14:56 Vrbl 6 16.09 Fair CLR 22.8 2.8 27% 76.4 1018.4
30 13:56 Vrbl 6 16.09 Fair CLR 21.7 3.9 31% 76.45 1019.2
30 12:56 NW 9 16.09 Fair CLR 20 6.1 40% 76.5 1020.0
30 11:56 Vrbl 7 16.09 Fair CLR 17.2 6.1 48% 76.58 1021.0
30 10:56 Calm 16.09 Fair CLR 15.6 6.1 15.6 6.1 53% 76.66 1022.1
30 09:56 W 6 16.09 Fair CLR 13.3 5.6 60% 76.71 1022.6
30 08:56 Vrbl 6 16.09 Fair CLR 11.1 5.6 69% 76.73 1023.2
30 07:56 E 9 0.00 Fair CLR 9.4 5 74% 8 76.76 1023.4
30 06:56 E 9 16.09 Fair CLR 7.8 3.9 77% 6 76.73 1023.1
30 05:56 E 6 16.09 Fair CLR 6.7 3.9 83% 76.71 1022.7
30 04:56 Calm 16.09 Fair CLR 7.2 3.3 11.1 6.7 77% 76.68 1022.6
30 03:56 Calm 16.09 Fair CLR 6.7 3.3 79% 76.71 1022.6
30 02:56 SE 7 16.09 Fair CLR 7.8 3.3 73% 7 76.68 1022.2
30 01:56 SE 6 16.09 Fair CLR 7.8 3.3 73% 76.66 1022.2
30 00:56 S 6 16.09 Fair CLR 8.9 3.9 71% 76.66 1022.1
29 23:56 S 7 16.09 Fair CLR 10 3.9 66% 9 76.66 1022.0
29 22:56 S 7 16.09 Fair CLR 11.1 3.9 20.6 11.1 61% 76.63 1021.7
29 21:56 S 6 16.09 Fair CLR 12.8 4.4 57% 76.63 1021.7
29 20:56 SE 7 16.09 Fair CLR 14.4 5 53% 76.61 1021.6
29 19:56 E 7 16.09 Mostly Cloudy BKN120 17.8 2.8 37% 76.58 1021.0
29 18:56 N 15 16.09 Mostly Cloudy BKN120 18.9 2.8 34% 76.58 1020.9
29 17:56 N 17 16.09 Fair CLR 20 0.6 27% 76.58 1020.9
29 16:56 NW 7 16.09 Fair CLR 19.4 4.4 21.1 13.9 37% 76.58 1021.0
Date Time (pdt) Wind (kph) Vis. (km) Weather Sky Cond. Air Dwpt Max. Min. Relative Humidity Wind Chill (°C) Heat Index (°C) altimeter (cm) sea level (mb) 1 hr 3 hr 6 hr
6 hour
Temperature (ºC) Pressure Precipitation (cm)